User: anonymous   Login
Location: Unspecified
(0.0000°N, 0.0000°E)
Time: 08:47:48
(UTC+00:00)
Language:

STARLINK-34758 - Orbit

View from above orbital plane
View from above orbital plane
View from above satellite
View from above satellite

Ground track
Ground track

The orbit is defined by the following mean orbital elements,

1 64945U          26145.56335100 +.00000000 +00000-0 +16791-3 0 00009
2 64945  97.4489   9.4821 0002416  87.9328 272.2175 15.05653568    05
Epoch (UTC): 25 May 2026 13:31:13
Eccentricity: 0.0002416
inclination: 97.4489°
perigee height: 548 km
apogee height: 551 km
right ascension of ascending node: 9.4821°
argument of perigee: 87.9328°
revolutions per day: 15.05653568
mean anomaly at epoch: 272.2175°

The dashed part of the orbit path shows where the satellite is in the earth's shadow,  

DLR